Find Starlink 11441

NORAD ID: 62413 Int'l Des: 2024-249 Owner: SPXS Country: US Constellation: starlink operational
別名: STARLINK-11441 [DTC] celestrak
LEOCIRCULAR

現在のビュー

3D地球を読み込み中...

About Starlink 11441

Starlink 11441 (NORAD 62413) is a starlink constellation satellite (v2 mini d2c) launched Dec 23, 2024 by SPXS of US. It operates in LEO, CIRCULAR orbit with a mass of 960.00 kg.

次回通過

Passes for default location (London). Set your location on the main map for personalized predictions.

高度履歴

Loading altitude history...

軌道要素

1 62413U 24249E 26263.18957534 .00140133 00000-0 10739-2 0 9992
2 62413 43.0020 74.9870 0002599 269.7861 90.2709 15.70912791100073
Epoch: Sep 20, 2026 • Age: 21 hours

現在のステータス

高度 356.9 km
遠地点 / 近地点 N/A
速度 7.70 km/s
衛星直下点 -11.63°S, 29.42°E
打ち上げ日 Dec 23, 2024
運用期間 1.7 years
タイプ internet

技術仕様

分類 Payload
質量 960.00 kg
乾燥質量 910.00 kg
長さ 0.30 m
スパン 29.00 m
形状 ? Box + pan
製造者 SPXS
バスタイプ Starlink V2MD
フェーズステータス In Orbit
所有者/国 SPXS/US

Most Searched